Hourly Data Report for January 28, 2021

STE-ANNE-DE-BELLEVUE 1
QUEBEC
Current Station Operator: ECCC - MSC

45°25'38.000" N
73°55'45.000" W
39.00 m
702FHL8
71377
WVQ

Download Data

Hourly Data (January 2021)
Hourly Data Report for January 28, 2021
TIME
LST
Temp Definition
°C
Dew Point Definition
°C
Rel Hum Definition
%
Precip. Amount Definition
mm

Wind Dir Definition
10's deg

Wind Spd Definition
km/h
Visibility Definition
km
Stn Press Definition
kPa
Hmdx Definition


Wind Chill Definition


Weather Definition


00:00 -5.9 -7.6 87 0.0 25 14   101.59   -11 LegendNANA
01:00 -5.9 -7.7 87 0.0 25 13   101.58   -11 LegendNANA
02:00 -5.8 -8.1 84 0.0 27 12   101.56   -11 LegendNANA
03:00 -6.5 -8.7 84 0.0 26 11   101.55   -11 LegendNANA
04:00 -6.5 -9.5 80 0.0 27 15   101.52   -12 LegendNANA
05:00 -7.0 -10.0 79 0.0 28 15   101.52   -13 LegendNANA
06:00 -7.3 -10.5 78 0.0 28 17   101.53   -14 LegendNANA
07:00 -7.6 -11.0 77 0.0 28 16   101.58   -14 LegendNANA
08:00 -7.7 -11.4 75 0.0 27 14   101.63   -14 LegendNANA
09:00 -7.7 -11.9 72 0.0 27 13   101.64   -13 LegendNANA
10:00 -7.8 -12.1 71 0.0 28 19   101.65   -15 LegendNANA
11:00 -7.8 -12.5 69 0.0 28 19   101.64   -15 LegendNANA
12:00 -8.0 -12.8 68 0.0 28 27   101.57   -16 LegendNANA
13:00 -8.1 -13.1 67 0.0 28 25   101.51   -16 LegendNANA
14:00 -8.5 -13.6 67 0.0 27 28   101.50   -17 LegendNANA
15:00 -9.0 -14.2 66 0.0 28 26   101.52   -18 LegendNANA
16:00 -9.2 -14.2 67 0.0 27 22   101.57   -17 LegendNANA
17:00 -9.8 -14.8 67 0.0 28 22   101.62   -18 LegendNANA
18:00 -10.5 -15.5 67 0.0 29 17   101.66   -18 LegendNANA
19:00 -11.3 -17.2 62 0.0 30 21   101.68   -20 LegendNANA
20:00 -13.1 -18.7 63 0.0 32 22   101.70   -22 LegendNANA
21:00 -14.5 -20.5 60 0.0 30 19   101.70   -23 LegendNANA
22:00 -16.0 -22.2 59 0.0 30 16   101.70   -24 LegendNANA
23:00 -16.6 -22.1 62 0.0 28 15   101.67   -25 LegendNANA

Notes on Data Quality.

Legend

  • E = Estimated
  • M = Missing
  • NA = Not Available*
  • [empty] = Indicates an unobserved value
Date modified: